Location: Heisede
(52.2582°N, 9.8523°E)
Time: 21:15:33
(UTC+00:00)

Cosmos 2227 Rocket - Pass Details

Date: 13 January 2026
Orbit: 837 x 845 km, 71.0° (Epoch: 16 February)

Event Time Altitude Azimuth Distance (km) Brightness Sun altitude
Exits shadow 04:59:41 13° 343° (NNW) 2,286 4.2 -21.3°
Maximum altitude 04:59:59 13° 346° (NNW) 2,284 4.2 -21.2°
Drops below altitude 10° 05:02:23 10° 12° (NNE) 2,470 4.7 -20.9°
Sets 05:06:30 0° 41° (NE) 3,408 5.8 -20.2°
